TimeEST,TemperatureF,Dew PointF,Humidity,Sea Level PressureIn,VisibilityMPH,Wind Direction,Wind SpeedMPH,Gust SpeedMPH,PrecipitationIn,Events,Conditions,WindDirDegrees,DateUTC
12:54 AM,39.9,37.9,93,29.49,10.0,SW,16.1,-,N/A,,Overcast,220,2013-02-27 05:54:00
1:54 AM,39.0,37.0,93,29.51,10.0,SW,13.8,-,N/A,,Overcast,220,2013-02-27 06:54:00
2:54 AM,39.0,37.0,93,29.51,10.0,SW,16.1,-,N/A,,Overcast,220,2013-02-27 07:54:00
3:54 AM,39.0,37.0,93,29.51,9.0,SW,12.7,-,N/A,,Overcast,230,2013-02-27 08:54:00
4:20 AM,37.4,35.6,93,29.51,10.0,WSW,21.9,29.9,0.00,,Overcast,240,2013-02-27 09:20:00
4:38 AM,37.4,35.6,93,29.51,10.0,WSW,19.6,31.1,0.00,,Overcast,240,2013-02-27 09:38:00
4:54 AM,36.0,34.0,93,29.55,6.0,WSW,23.0,33.4,0.00,,Overcast,240,2013-02-27 09:54:00
5:54 AM,34.0,32.0,92,29.57,7.0,SW,18.4,27.6,0.00,,Overcast,230,2013-02-27 10:54:00
6:54 AM,34.0,30.9,89,29.59,10.0,WSW,18.4,-,N/A,,Overcast,240,2013-02-27 11:54:00
7:08 AM,33.8,30.2,87,29.57,10.0,SW,11.5,-,N/A,,Overcast,230,2013-02-27 12:08:00
7:46 AM,33.8,30.2,87,29.59,4.0,SW,17.3,-,0.00,,Light Drizzle,230,2013-02-27 12:46:00
7:54 AM,33.1,30.9,92,29.61,5.0,WSW,17.3,-,0.00,,Light Drizzle,240,2013-02-27 12:54:00
8:54 AM,33.1,30.9,92,29.63,7.0,SW,15.0,-,0.00,,Overcast,230,2013-02-27 13:54:00
9:20 AM,33.8,30.2,87,29.62,5.0,WSW,18.4,-,0.00,,Light Drizzle,240,2013-02-27 14:20:00
9:41 AM,33.8,30.2,87,29.62,6.0,SW,15.0,-,0.00,,Light Drizzle,230,2013-02-27 14:41:00
9:54 AM,33.1,30.9,92,29.64,6.0,WSW,18.4,-,0.00,Snow,Light Snow,240,2013-02-27 14:54:00
10:11 AM,33.8,30.2,87,29.63,3.0,SW,17.3,23.0,0.00,Snow,Light Snow,230,2013-02-27 15:11:00
10:20 AM,33.8,30.2,87,29.63,2.0,SW,16.1,-,0.00,Snow,Light Snow,230,2013-02-27 15:20:00
10:36 AM,33.8,32.0,93,29.63,2.0,WSW,16.1,-,0.01,Snow,Light Snow,240,2013-02-27 15:36:00
10:50 AM,33.8,32.0,93,29.63,2.0,SW,16.1,24.2,0.01,Snow,Light Snow,230,2013-02-27 15:50:00
10:54 AM,34.0,32.0,92,29.64,7.0,SW,16.1,23.0,0.01,,Overcast,220,2013-02-27 15:54:00
11:36 AM,33.8,30.2,87,29.63,2.5,SW,19.6,26.5,0.00,Snow,Light Snow,220,2013-02-27 16:36:00
11:49 AM,33.8,30.2,87,29.62,3.0,SW,18.4,27.6,0.00,Snow,Light Snow,230,2013-02-27 16:49:00
11:54 AM,34.0,30.9,89,29.64,3.0,SW,20.7,28.8,0.00,Snow,Light Snow,230,2013-02-27 16:54:00
12:45 PM,35.6,30.2,81,29.62,10.0,SW,24.2,31.1,0.00,,Overcast,230,2013-02-27 17:45:00
12:54 PM,35.1,30.0,82,29.63,10.0,SW,20.7,29.9,0.00,,Overcast,230,2013-02-27 17:54:00
1:54 PM,34.0,28.9,82,29.64,5.0,SW,18.4,26.5,0.00,Snow,Light Snow,230,2013-02-27 18:54:00
2:23 PM,33.8,30.2,87,29.62,2.5,WSW,17.3,27.6,0.00,Snow,Light Snow,240,2013-02-27 19:23:00
2:40 PM,33.8,30.2,87,29.62,3.0,SW,17.3,-,0.00,Snow,Light Snow,230,2013-02-27 19:40:00
2:54 PM,33.1,30.0,89,29.65,3.0,SW,17.3,-,0.00,Snow,Light Snow,230,2013-02-27 19:54:00
3:10 PM,33.8,30.2,87,29.63,2.0,WSW,16.1,-,0.01,Snow,Light Snow,240,2013-02-27 20:10:00
3:31 PM,33.8,30.2,87,29.64,3.0,WSW,15.0,-,0.01,Snow,Light Snow,240,2013-02-27 20:31:00
3:54 PM,33.1,30.0,89,29.66,3.0,WSW,17.3,-,0.01,Snow,Light Snow,240,2013-02-27 20:54:00
4:19 PM,33.8,30.2,87,29.64,2.0,WSW,11.5,-,0.00,Snow,Light Snow,250,2013-02-27 21:19:00
4:31 PM,33.8,30.2,87,29.65,1.5,WSW,13.8,-,0.00,Snow,Light Snow,240,2013-02-27 21:31:00
4:54 PM,33.1,30.9,92,29.67,1.8,WSW,12.7,-,0.00,Snow,Light Snow,240,2013-02-27 21:54:00
5:54 PM,32.0,30.9,96,29.68,1.0,WSW,13.8,-,0.02,Snow,Light Snow,250,2013-02-27 22:54:00
6:54 PM,32.0,30.0,92,29.70,1.0,West,16.1,-,0.01,Snow,Light Snow,260,2013-02-27 23:54:00
7:03 PM,32.0,30.2,93,29.68,4.0,WSW,13.8,-,0.00,Snow,Light Snow,250,2013-02-28 00:03:00
7:54 PM,32.0,28.9,88,29.71,9.0,WSW,16.1,-,0.00,Snow,Light Snow,250,2013-02-28 00:54:00
8:54 PM,32.0,28.4,87,29.69,9.0,WSW,13.8,-,N/A,Snow,Light Snow,250,2013-02-28 01:54:00
9:33 PM,32.0,28.4,87,29.69,9.0,West,15.0,-,0.00,Snow,Light Snow,260,2013-02-28 02:33:00
9:54 PM,32.0,28.0,85,29.72,9.0,West,13.8,-,0.00,Snow,Light Snow,260,2013-02-28 02:54:00
10:14 PM,30.2,28.4,93,29.69,9.0,WSW,17.3,-,0.00,Snow,Light Snow,250,2013-02-28 03:14:00
10:54 PM,30.9,28.0,89,29.71,9.0,WSW,17.3,-,0.00,Snow,Light Snow,250,2013-02-28 03:54:00
11:11 PM,30.2,28.4,93,29.69,9.0,WSW,17.3,-,0.00,Snow,Light Snow,250,2013-02-28 04:11:00
11:54 PM,30.9,28.0,89,29.70,9.0,West,18.4,-,0.00,Snow,Light Snow,260,2013-02-28 04:54:00